Blue Mountain Xtreme

DAY 1 – 20KM

11ROSSMichaelMen1:22:08Big 6
212SHAFFRobertMen1:26:17Big 6
31005MULLERPieter-johnMen1:29:12BlueMtTrailStage
411BADENHORSTJacquesMen1:30:48Big 6
54GROBLERGeorgiaWomen1:30:56Big 6
617WAGENVOORDEFrederickMen1:31:40Big 6
710JONESJonathanMen1:32:44Big 6
81061WIESNERGarethMen1:33:56Blue Mnt Trail20
916SHAWRiaanMen1:34:32Big 6
103KIRKThomasMen1:35:05Big 6
117WINTERMarkMen1:38:09Big 6
128VAN DER MERWEVickyWomen1:38:54Big 6
1313SWEETNAMWesleyMen1:40:02Big 6
141063OLIVIERAnnaWomen1:45:41Blue Mnt Trail20
155GILIOMEEBenjaminMen1:46:34Big 6
161012VISSERRudolfMen1:52:21BlueMtTrailStage
171009KRUGERJaniWomen1:53:58BlueMtTrailStage
181020BROWNEJeremyMen1:54:19BlueMtTrailStage
196UYSPieterMen1:54:42Big 6
202MCCARLEYMeganWomen1:57:06Big 6
211062MINNAARJohannMen1:59:28Blue Mnt Trail20
2215VAN RENSBURGArneWomen1:59:33Big 6
231064EVERTSRowanMen1:59:57Blue Mnt Trail20
241003LAUBSCHERHannesMen2:01:03BlueMtTrailStage
251007ERWEEConnorMen2:07:19BlueMtTrailStage
269MARITZFrancoisMen2:09:21Big 6
271014HEERSCHAPLiezlWomen2:10:02BlueMtTrailStage
281013ERASMUSEstelleWomen2:10:41BlueMtTrailStage
291001HAMMANCillieMen2:10:56BlueMtTrailStage
301015RAATHMarilizeWomen2:10:58BlueMtTrailStage
311011STAVENGAElisabethWomen2:11:35BlueMtTrailStage
321054GOUWSChrisMen2:12:43Blue Mnt Trail20
331053GOUWSNarethaWomen2:12:43Blue Mnt Trail20
341010STONENicoleWomen2:13:36BlueMtTrailStage
351004WATTMarkMen2:14:08BlueMtTrailStage
361018CROUSCharlesMen2:14:33BlueMtTrailStage
371058ABRAHAMSFirozMen2:16:32BlueMtTrailStage
381065TARLINGLaurenWomen2:19:14Blue Mnt Trail20
391066HORNTheresaWomen2:19:15Blue Mnt Trail20
401002DALVIEMuhammedMen2:19:57BlueMtTrailStage
411008SCOTTSeanMen2:21:21BlueMtTrailStage
4214BAYLYAlessandraWomen2:23:01Big 6
431056STAMATISJonathanMen2:23:10Blue Mnt Trail20
441051MELESSENJellekeWomen2:23:21Blue Mnt Trail20
451006LAMMINGADennisMen2:23:36BlueMtTrailStage
461016ALEXANDERZaynabWomen2:26:07BlueMtTrailStage
471060GRAHAMPatrickMen2:28:16Blue Mnt Trail20
481059GRAHAMJenniferWomen2:28:16Blue Mnt Trail20
491052STOFBERGEgMen2:36:38Blue Mnt Trail20
501057KRUGERUysMen2:37:45Blue Mnt Trail20
5118RUZICHThomasMen3:01:30Big 6

DAY 2 – 21KM

11208BLACKJonathanMen1:35:08Blue Mnt Trail21
21240BONJESIJimmyMen1:35:12Blue Mnt Trail21
31231PIVODylanMen1:42:42Blue Mnt Trail21
41005MULLERPieter-johnMen1:50:28BlueMtTrailStage
51220DELPORTKobusMen1:53:06Blue Mnt Trail21
61204ASQUITHJosh AsquithMen1:53:20Blue Mnt Trail21
71221PRIVETTSeanMen1:55:42Blue Mnt Trail21
81223UYSMiaWomen2:00:29Blue Mnt Trail21
91230GULTIGKayleighWomen2:04:44Blue Mnt Trail21
101218TEMPLETONGaryMen2:05:35Blue Mnt Trail21
111234LACOCKJacobusMen2:05:43Blue Mnt Trail21
121211JONESYolisaWomen2:07:17Blue Mnt Trail21
131200VAN OVERBEEKEJanMen2:08:33Blue Mnt Trail21
141239PIEPERGerdMen2:11:16Blue Mnt Trail21
151222BARRISTigheMen2:11:16Blue Mnt Trail21
161336LEVINDanMen2:15:07Blue Mnt Trail21
171009KRUGERJaniWomen2:15:07BlueMtTrailStage
181245COETZERBradMen2:16:16Blue Mnt Trail21
191235WEYER-HENDERSONGabriellaWomen2:16:17Blue Mnt Trail21
201003LAUBSCHERHannesMen2:16:25BlueMtTrailStage
211217VAN ROOYENJoeMen2:19:13Blue Mnt Trail21
221247NICHOLASNinaWomen2:20:17Blue Mnt Trail21
231020BROWNEJeremyMen2:21:47BlueMtTrailStage
241001HAMMANCillieMen2:25:39BlueMtTrailStage
251225NEVELINGKellyWomen2:26:50Blue Mnt Trail21
261228STUDIORebalanceWomen2:26:50Blue Mnt Trail21
271207MORRISONTerryMen2:28:09Blue Mnt Trail21
281214RASSAWAMen2:30:59Blue Mnt Trail21
291203ELLIOTTRichardMen2:32:01Blue Mnt Trail21
301215PAULLaraWomen2:32:09Blue Mnt Trail21
311237GORDONWestleyMen2:33:32Blue Mnt Trail21
321007ERWEEConnorMen2:33:32BlueMtTrailStage
331229YEOEmilyWomen2:34:54Blue Mnt Trail21
341241HERRMANN-KEYSPaulineWomen2:35:47Blue Mnt Trail21
351012VISSERRudolfMen2:35:47BlueMtTrailStage
361013ERASMUSEstelleWomen2:37:25BlueMtTrailStage
371014HEERSCHAPLiezlWomen2:37:26BlueMtTrailStage
381206MALANYolandeWomen2:38:11Blue Mnt Trail21
391232VAN DEN AARDWEGKateWomen2:38:21Blue Mnt Trail21
401224MESSINABiancaWomen2:40:47Blue Mnt Trail21
411238MESSINADanielaWomen2:40:47Blue Mnt Trail21
421212LAUBSCHERElaineWomen2:41:59Blue Mnt Trail21
431011STAVENGAElisabethWomen2:42:38BlueMtTrailStage
441010STONENicoleWomen2:42:50BlueMtTrailStage
451233HVIDSTENKarlMen2:43:04Blue Mnt Trail21
461244KERNICKMurrayMen2:43:26Blue Mnt Trail21
471202HOLDENCoralWomen2:45:59Blue Mnt Trail21
481015RAATHMarilizeWomen2:48:10BlueMtTrailStage
491058ABRAHAMSFirozMen2:48:11BlueMtTrailStage
501249SALMANKhayaMen2:51:42Blue Mnt Trail21
511226VAN DYKAnandaWomen3:08:08Blue Mnt Trail21
521227STEENKAMPHumanMen3:08:08Blue Mnt Trail21
531216ARENDSEShafeekaWomen3:10:38Blue Mnt Trail21
541210DAVIDSNabielahWomen3:30:20Blue Mnt Trail21
551002DALVIEMuhammedMen3:30:21BlueMtTrailStage
561209DAVIDSNailahWomen3:30:23Blue Mnt Trail21
571243FLOWERSMichelleWomen3:54:45Blue Mnt Trail21
581242PENSOMarioMen3:54:46Blue Mnt Trail21

9KM

11374BURGERFrancoisMen0:52:17Blue Mnt Trail-10
21378VAN NIEKERKLijanWomen0:52:26Blue Mnt Trail-10
31316SCOTTJoshMen0:52:37Blue Mnt Trail-10
41382SWARTJurie-JanMen1:06:11Blue Mnt Trail-10
51319MOSSThomasMen1:06:12Blue Mnt Trail-10
61367STADLERJacobMen1:07:28Blue Mnt Trail-10
71383ODENDAALMiaWomen1:07:54Blue Mnt Trail-10
81347DU TOITRicusMen1:07:59Blue Mnt Trail-10
91313SWARTSRyno JacobusMen1:08:26Blue Mnt Trail-10
101369PEINRebeccaWomen1:08:27Blue Mnt Trail-10
111368HANELErikMen1:08:28Blue Mnt Trail-10
121363DAVINMichelleWomen1:09:07Blue Mnt Trail-10
131323HILLClintonMen1:10:23Blue Mnt Trail-10
141311MUIRHEADGeorginaWomen1:10:27Blue Mnt Trail-10
151334DAVISBRENNANMen1:10:56Blue Mnt Trail-10
161335DAVISjacquiWomen1:10:56Blue Mnt Trail-10
171307MULLERArnoMen1:10:58Blue Mnt Trail-10
181305GROENEWALDJacquesMen1:10:59Blue Mnt Trail-10
191306GROENEWALDJannekeWomen1:10:59Blue Mnt Trail-10
201317HAVARDsarahWomen1:11:29Blue Mnt Trail-10
211340PERROTTNixWomen1:11:33Blue Mnt Trail-10
221380ESTERHUIZENPierreMen1:11:34Blue Mnt Trail-10
231373JEANERetiefWomen1:11:53Blue Mnt Trail-10
241304HARTMANNRolfMen1:11:58Blue Mnt Trail-10
251302MARAISChrystalWomen1:12:27Blue Mnt Trail-10
261312BRYNARDMoniqueWomen1:12:29Blue Mnt Trail-10
271310FIELDINGWhelanMen1:12:35Blue Mnt Trail-10
281354SMITJoneseWomen1:12:46Blue Mnt Trail-10
291358DORFLINGAnriWomen1:12:46Blue Mnt Trail-10
301359DE VILLIERSAnelWomen1:13:04Blue Mnt Trail-10
311353VAN DER WESTHUIZENHendrikMen1:13:08Blue Mnt Trail-10
321352VAN DER MERWEJanaWomen1:13:08Blue Mnt Trail-10
331350BINGLEReinoMen1:13:10Blue Mnt Trail-10
341345CHARLTONLeighWomen1:14:09Blue Mnt Trail-10
351362DIENERLilizeWomen1:14:13Blue Mnt Trail-10
361372ENGELBRECHTCythnaWomen1:14:26Blue Mnt Trail-10
371360BOTHARynoMen1:14:28Blue Mnt Trail-10
381379KENNEDYNicholasMen1:15:23Blue Mnt Trail-10
391375JULLIENDonnaWomen1:20:03Blue Mnt Trail-10
401357STRYDOMSMen1:25:08Blue Mnt Trail-10
411315WESSELSHenkMen1:30:13Blue Mnt Trail-10
421330LE ROUXChrisnaWomen1:32:07Blue Mnt Trail-10
431349HERRMANNErikaWomen1:32:38Blue Mnt Trail-10
441348HEGERMaaikeWomen1:32:47Blue Mnt Trail-10
451333GETZCraigMen1:32:51Blue Mnt Trail-10
461332VAN NIEKERKAnoukWomen1:32:51Blue Mnt Trail-10
471337ERLANGSENVerityWomen1:33:14Blue Mnt Trail-10
481385VAN DER STOEPHanneenWomen1:33:45Blue Mnt Trail-10
491386VAN DALSENSherryWomen1:34:00Blue Mnt Trail-10
501361TOMLINSONAnnaWomen1:34:14Blue Mnt Trail-10
511308DE CLERCQCarlMen1:35:05Blue Mnt Trail-10
521326VAN DEN BOSCHSarahWomen1:35:28Blue Mnt Trail-10
531328VAN DER SPUYDarnelMen1:35:29Blue Mnt Trail-10
541321HENNINGJeanineWomen1:35:44Blue Mnt Trail-10
551320NAGTEGAALVeraWomen1:35:44Blue Mnt Trail-10
561300MARAISGawieMen1:35:48Blue Mnt Trail-10
571370JOHNSONMargotWomen1:35:48Blue Mnt Trail-10
581371WATSONJoniWomen1:36:31Blue Mnt Trail-10
591381JEWMelissa-AnnWomen1:36:44Blue Mnt Trail-10
601309CONRADIEAlidaWomen1:37:13Blue Mnt Trail-10
611356MAASTilidaWomen1:38:23Blue Mnt Trail-10
621301STAHLSimoneWomen1:38:37Blue Mnt Trail-10
631322ROSSOUWHeidiWomen1:38:39Blue Mnt Trail-10
641324SCHUTTEIlseWomen1:40:27Blue Mnt Trail-10
651351DELPORTJoanieWomen1:45:03Blue Mnt Trail-10
661355UYSAntonMen1:45:04Blue Mnt Trail-10
671376DUNNJohnMen1:45:41Blue Mnt Trail-10
681377DUNNElaineWomen1:45:42Blue Mnt Trail-10
691325ARCHIBALDNicholasMen1:46:36Blue Mnt Trail-10
701342ATTRIDGEMeganWomen1:46:36Blue Mnt Trail-10
711343CARNOWJadeWomen1:46:37Blue Mnt Trail-10
721219BARNESLee-AnnWomen1:46:38Blue Mnt Trail-10
731364JACOBSJihaanWomen1:54:31Blue Mnt Trail-10
741365JACOBSArmienMen1:54:49Blue Mnt Trail-10
751329SEDEMANFabioMen1:55:03Blue Mnt Trail-10
761389ANELLITarrynWomen2:06:01Blue Mnt Trail-10
771387HENNGerdaWomen2:06:03Blue Mnt Trail-10
781344FREWSarahWomen2:06:03Blue Mnt Trail-10
791390DE BRUYNChanelWomen2:06:04Blue Mnt Trail-10
801327DAVIDSELeeMen2:18:46Blue Mnt Trail-10
811338STEMMETThakiraWomen2:30:39Blue Mnt Trail-10
821339HIGGSRishkaWomen2:30:55Blue Mnt Trail-10

Overall Stage Race Results

11005MULLERPieter-johnMen1:29:121:50:2803:19:40BlueMtTrailStage
21009KRUGERJaniWomen1:53:582:15:0704:09:05BlueMtTrailStage
31020BROWNEJeremyMen1:54:192:21:4704:16:06BlueMtTrailStage
41003LAUBSCHERHannesMen2:01:032:16:2504:17:28BlueMtTrailStage
51012VISSERRudolfMen1:52:212:35:4704:28:08BlueMtTrailStage
61001HAMMANCillieMen2:10:562:25:3904:36:35BlueMtTrailStage
71007ERWEEConnorMen2:07:192:33:3204:40:51BlueMtTrailStage
81014HEERSCHAPLiezlWomen2:10:022:37:2604:47:28BlueMtTrailStage
91013ERASMUSEstelleWomen2:10:412:37:2504:48:06BlueMtTrailStage
101011STAVENGAElisabethWomen2:11:352:42:3804:54:13BlueMtTrailStage
111010STONENicoleWomen2:13:362:42:5004:56:26BlueMtTrailStage
121015RAATHMarilizeWomen2:10:582:48:1004:59:08BlueMtTrailStage
131058ABRAHAMSFirozMen2:16:322:48:1105:04:43BlueMtTrailStage
141002DALVIEMuhammedMen2:19:573:30:2105:50:18BlueMtTrailStage